Location: Wien
(48.2082°N, 16.3738°E)
Time: 03:33:59
(UTC+01:00)

Explorer 11/Cluster Stage 4 - Visible Passes

Search period start: 23 February 2024 00:00
Search period end: 04 March 2024 00:00
Orbit: 465 x 1224 km, 28.8° (Epoch: 22 February)

Date Brightness Start Highest point End Pass type
(mag) Time Alt. Az. Time Alt. Az. Time Alt. Az.
23 Feb 8.9 04:37:15 11° SSW 04:37:26 11° S 04:39:08 10° S visible
24 Feb 9.0 04:21:37 12° S 04:21:37 12° S 04:22:59 10° S visible
25 Feb 9.1 04:06:00 11° S 04:06:00 11° S 04:06:40 10° S visible
